Ibiza, Spain

3:23 AM CEST on April 25, 2017 (GMT +0200)
Ibiza

Weather History for LEIB - April, 2013

Change the Weather History Date:

Sunday, April 28, 2013

  Actual Average Record
Temperature  
Mean Temperature 60 °F -  
Max Temperature 65 °F 70 °F 75 °F (2014)
Min Temperature 55 °F 58 °F 51 °F (2001)
Degree Days  
Heating Degree Days 5    
Growing Degree Days 10 (Base 50)    
Moisture  
Dew Point 57 °F    
Average Humidity 92    
Maximum Humidity 100    
Minimum Humidity 71    
Precipitation  
Precipitation 0.20 in 0.03 in - ()
Sea Level Pressure  
Sea Level Pressure 29.65 in    
Wind  
Wind Speed 10 mph ()    
Max Wind Speed 18 mph    
Max Gust Speed 16 mph    
Visibility 6.1 miles    
Events Rain    
Averages and records for this station are not official NWS values.
T = Trace of Precipitation, MM = Missing Value Source: Averaged Metar Reports

Daily Weather History Graph

Daily Weather History Graph

Search for Another Location

Airport or City:

Trip Planner

Search our weather history database for the weather conditions in past years. The results will help you decide how hot, cold, wet, or windy it might be!

Date:

Astronomy

Apr. 28, 2013 Rise Set
Actual Time 7:00 AM CEST 8:44 PM CEST
Civil Twilight 6:31 AM CEST 9:12 PM CEST
Nautical Twilight 5:57 AM CEST 9:47 PM CEST
Astronomical Twilight 5:20 AM CEST 10:24 PM CEST
Moon 11:58 PM CEST (4/28) 9:02 AM CEST (4/28)
Length of Visible Light 14h 40m
Length of Day
13h 43m
Waning Gibbous, 91% of the Moon is Illuminated
Apr 28
Waning Gibbous
May 2
Last Quarter
May 10
New
May 18
First Quarter
May 25
Full

Hourly Weather History & Observations

Time (CEST) Temp. Dew Point Humidity Pressure Visibility Wind Dir Wind Speed Gust Speed Precip Events Conditions
12:00 AM 57.2 °F 57.2 °F 100% 29.71 in 4.3 mi NNE 8.1 mph - N/A Rain Rain
12:30 AM 57.2 °F 57.2 °F 100% 29.71 in 4.3 mi NE 13.8 mph - N/A Rain Rain
1:00 AM 57.2 °F 57.2 °F 100% 29.68 in 6.2 mi NE 18.4 mph - N/A   Drizzle
1:30 AM 57.2 °F 57.2 °F 100% 29.68 in 6.2 mi NE 17.3 mph - N/A   Mostly Cloudy
2:00 AM 57 °F 55 °F 91% 29.69 in 7 mi ENE 15.0 mph - - Rain Light Drizzle
2:00 AM 57.2 °F 57.2 °F 100% 29.68 in 6.2 mi ENE 15.0 mph - N/A   Light Drizzle
2:30 AM 57.2 °F 57.2 °F 100% 29.68 in 6.2 mi ENE 16.1 mph - N/A   Mostly Cloudy
3:00 AM 57.2 °F 57.2 °F 100% 29.65 in 6.2 mi NE 15.0 mph - N/A   Mostly Cloudy
3:30 AM 57.2 °F 57.2 °F 100% 29.65 in 2.5 mi NE 17.3 mph - N/A Rain Rain
4:00 AM 55.4 °F 55.4 °F 100% 29.62 in 2.5 mi NE 17.3 mph - N/A Rain Heavy Rain
4:30 AM 57.2 °F 57.2 °F 100% 29.62 in 3.7 mi NE 17.3 mph - N/A Rain Rain
5:00 AM 57.2 °F 57.2 °F 100% 29.62 in 3.7 mi NE 12.7 mph - N/A Rain Rain
5:30 AM 57.2 °F 55.4 °F 94% 29.62 in 6.2 mi NW 3.5 mph 16.1 mph N/A   Light Drizzle
6:30 AM 57.2 °F 57.2 °F 100% 29.59 in 6.2 mi NNW 4.6 mph - N/A   Drizzle
7:30 AM 55.4 °F 55.4 °F 100% 29.59 in 6.2 mi NW 8.1 mph - N/A Rain Light Rain
8:00 AM 56 °F 53 °F 88% 29.62 in 9 mi NNW 8.1 mph - - Rain Light Rain
8:00 AM 55.4 °F 55.4 °F 100% 29.59 in 6.2 mi NNW 8.1 mph - N/A   Mostly Cloudy
8:30 AM 55.4 °F 55.4 °F 100% 29.59 in 6.2 mi NNW 10.4 mph - N/A   Mostly Cloudy
9:00 AM 57.2 °F 57.2 °F 100% 29.59 in 6.2 mi North 8.1 mph - N/A   Scattered Clouds
9:30 AM 59.0 °F 57.2 °F 94% 29.59 in 6.2 mi NNW 9.2 mph - N/A   Mostly Cloudy
10:00 AM 59.0 °F 57.2 °F 94% 29.59 in 6.2 mi NNW 8.1 mph - N/A   Mostly Cloudy
10:30 AM 60.8 °F 59.0 °F 94% 29.59 in 6.2 mi NNW 11.5 mph - N/A   Mostly Cloudy
11:00 AM 62.6 °F 57.2 °F 82% 29.62 in 6.2 mi North 3.5 mph - N/A   Scattered Clouds
11:30 AM 62.6 °F 57.2 °F 82% 29.62 in 6.2 mi Variable 2.3 mph - N/A   Mostly Cloudy
12:30 PM 62.6 °F 59.0 °F 88% 29.62 in 6.2 mi SSW 8.1 mph - N/A   Mostly Cloudy
1:00 PM 62.6 °F 59.0 °F 88% 29.62 in 6.2 mi SSW 9.2 mph - N/A   Scattered Clouds
1:30 PM 62.6 °F 59.0 °F 88% 29.62 in 6.2 mi SSW 8.1 mph - N/A   Partly Cloudy
2:00 PM 64 °F 57 °F 71% 29.63 in 12 mi South 11.5 mph - -   Scattered Clouds
2:00 PM 62.6 °F 57.2 °F 82% 29.62 in 6.2 mi South 10.4 mph - N/A   Partly Cloudy
2:30 PM 62.6 °F 59.0 °F 88% 29.62 in 6.2 mi South 10.4 mph - N/A   Partly Cloudy
3:00 PM 62.6 °F 57.2 °F 82% 29.65 in 6.2 mi South 12.7 mph - N/A   Scattered Clouds
3:30 PM 62.6 °F 57.2 °F 82% 29.65 in 6.2 mi South 10.4 mph - N/A   Partly Cloudy
4:00 PM 62.6 °F 57.2 °F 82% 29.65 in 6.2 mi South 9.2 mph - N/A   Partly Cloudy
4:30 PM 60.8 °F 57.2 °F 88% 29.65 in 6.2 mi South 11.5 mph - N/A   Partly Cloudy
5:00 PM 60.8 °F 55.4 °F 82% 29.65 in 6.2 mi South 9.2 mph - N/A   Scattered Clouds
5:30 PM 60.8 °F 57.2 °F 88% 29.65 in 6.2 mi South 9.2 mph - N/A   Scattered Clouds
5:50 PM 59.0 °F 57.2 °F 94% 29.65 in 6.2 mi SSW 8.1 mph - N/A   Mostly Cloudy
6:00 PM 59.0 °F 57.2 °F 94% 29.68 in 6.2 mi SSW 8.1 mph - N/A   Mostly Cloudy
6:30 PM 59.0 °F 55.4 °F 88% 29.68 in 6.2 mi SSW 9.2 mph - N/A   Mostly Cloudy
7:00 PM 59.0 °F 55.4 °F 88% 29.68 in 6.2 mi SSW 9.2 mph - N/A   Mostly Cloudy
7:30 PM 59.0 °F 55.4 °F 88% 29.71 in 6.2 mi SSW 8.1 mph - N/A   Scattered Clouds
8:00 PM 58 °F 53 °F 78% 29.70 in 7 mi WSW 5.8 mph - -   Scattered Clouds
8:00 PM 59.0 °F 55.4 °F 88% 29.68 in 6.2 mi WSW 6.9 mph - N/A   Partly Cloudy
8:30 PM 59.0 °F 55.4 °F 88% 29.68 in 6.2 mi WSW 3.5 mph - N/A   Partly Cloudy
9:00 PM 59.0 °F 53.6 °F 82% 29.68 in 6.2 mi Variable 2.3 mph - N/A   Partly Cloudy
9:30 PM 57.2 °F 55.4 °F 94% 29.71 in 6.2 mi Variable 2.3 mph - N/A   Partly Cloudy
10:00 PM 57.2 °F 55.4 °F 94% 29.74 in 6.2 mi Variable 2.3 mph - N/A   Partly Cloudy
10:30 PM 57.2 °F 55.4 °F 94% 29.74 in 6.2 mi Variable 1.2 mph - N/A   Partly Cloudy
11:00 PM 57.2 °F 55.4 °F 94% 29.74 in 6.2 mi Variable 1.2 mph - N/A   Scattered Clouds
11:30 PM 57.2 °F 55.4 °F 94% 29.77 in 6.2 mi Calm Calm - N/A   Scattered Clouds